Estación de Codegua

Ultimos registro cada 15 minutos 42
Estación Fecha / Hora Temperatura Humedad Lluvia Velocidad Dirección Radiación Presion
42 Codegua 07-05-2026 10:15 9,6 92 0 0 129 64,4 966,4
41 Codegua 07-05-2026 10:00 10 92,6 0 0 129 95,6 966,3
40 Codegua 07-05-2026 09:45 9,6 93,8 0 0 129 83,1 966,1
39 Codegua 07-05-2026 09:30 9,1 93,8 0 0 133 69,4 966,2
38 Codegua 07-05-2026 09:15 9,2 94,3 0 0 136 64,4 966,2
37 Codegua 07-05-2026 09:00 9,3 95,7 0 0 136 83,1 966
36 Codegua 07-05-2026 08:45 9 96,7 0 0 136 45,6 965,9
35 Codegua 07-05-2026 08:30 8,9 97,3 0 0 136 41,9 965,7
34 Codegua 07-05-2026 08:15 8,7 97,6 0 0 136 15,6 965,6
33 Codegua 07-05-2026 08:00 8,6 97,5 0 0 136 6,9 965,4
32 Codegua 07-05-2026 07:45 8,6 97,5 0 0 136 5,6 965,4
31 Codegua 07-05-2026 07:30 8,6 97,5 0 0 136 0,6 965,2
30 Codegua 07-05-2026 07:15 8,6 97,4 0 0 136 0,6 965,1
29 Codegua 07-05-2026 07:00 8,7 97,4 0 0 136 0,6 964,9
28 Codegua 07-05-2026 06:45 8,7 97,4 0 0 136 0,6 964,8
27 Codegua 07-05-2026 06:30 8,7 97,2 0 0 136 0,6 964,4
26 Codegua 07-05-2026 06:15 8,8 97,1 0 0 136 0,6 964,3
25 Codegua 07-05-2026 06:00 8,9 97,3 0 0 136 0,6 964,3
24 Codegua 07-05-2026 05:45 9 97,2 0 0 136 0,6 964
23 Codegua 07-05-2026 05:30 9,2 97,2 0 0 136 0,6 963,8
22 Codegua 07-05-2026 05:15 9,3 97,3 0 0 136 0,6 963,7
21 Codegua 07-05-2026 05:00 9,2 97 0 0 136 0,6 963,4
20 Codegua 07-05-2026 04:45 9,4 96,9 0 0 136 0,6 963,3
19 Codegua 07-05-2026 04:30 9,3 96,7 0 0 150 0,6 963,4
18 Codegua 07-05-2026 04:15 9,4 97 0 0 195 0,6 963,4
17 Codegua 07-05-2026 04:00 9,4 96,9 0 0 195 0,6 963,2
16 Codegua 07-05-2026 03:45 9,5 96,8 0,2 0 194 0,6 963,3
15 Codegua 07-05-2026 03:30 9,5 96,7 0 0 183 0,6 963,4
14 Codegua 07-05-2026 03:15 9,7 97,1 0 0 174 0,6 963,1
13 Codegua 07-05-2026 03:00 9,9 97,5 0 0 157 0,6 963,1
12 Codegua 07-05-2026 02:45 10 97,7 0 0 146 0,6 963,2
11 Codegua 07-05-2026 02:30 10 97,8 0 0 146 0,6 963
10 Codegua 07-05-2026 02:15 10 97,9 0 0 146 0,6 962,9
9 Codegua 07-05-2026 02:00 10 97,8 0 0 146 0,6 963
8 Codegua 07-05-2026 01:45 10,1 97,7 0 0 146 0,6 962,8
7 Codegua 07-05-2026 01:30 10,1 97,6 0 0 139 0,6 962,5
6 Codegua 07-05-2026 01:15 10,1 97,6 0 0 135 0,6 962,7
5 Codegua 07-05-2026 01:00 10,1 97,7 0 0 135 0,6 962,7
4 Codegua 07-05-2026 00:45 10,3 98,3 0 0 135 0,6 962,7
3 Codegua 07-05-2026 00:30 10,3 98,4 0 0 135 0,6 962,7
2 Codegua 07-05-2026 00:15 10,3 98,3 0 0 135 0,6 962,6
1 Codegua 07-05-2026 00:00 10,4 98,3 0 0 135 0,6 962,4